Total_Precipitation_Accumulation
0.06 0.06 0.10 0.15 0.16 0.22 0.25 0.28 0.37 0.42 0.34 0.38 0.60 0.89 0.95 1.00 1.20 1.33 1.35 1.32 1.39 1.66 2.10 2.28 2.57 3.06 3.87 4.66 5.40 5.57 5.95 5.55 4.95 4.42 3.99 3.89 3.74 3.45 3.35 3.21 3.16 3.09 2.88 2.82
0.08 0.11 0.13 0.09 0.10 0.14 0.19 0.26 0.36 0.37 0.27 0.34 0.65 1.04 1.17 1.14 1.08 1.15 1.22 1.27 1.36 1.72 2.18 2.50 3.03 3.41 3.44 4.01 4.79 4.87 4.59 4.45 4.05 3.71 3.58 3.43 3.40 3.06 2.93 2.84 2.98 2.77 2.65 2.78
0.12 0.14 0.11 0.09 0.12 0.17 0.20 0.25 0.30 0.30 0.30 0.39 0.67 1.26 1.55 1.34 1.00 0.88 0.95 1.07 1.23 1.51 2.01 2.43 2.82 3.27 3.25 3.65 3.79 3.45 3.34 3.46 3.41 3.27 3.21 3.11 3.14 2.96 2.76 2.68 2.78 2.64 2.41 2.48
0.10 0.09 0.08 0.09 0.12 0.14 0.17 0.16 0.17 0.19 0.31 0.56 0.70 1.52 1.92 1.56 1.14 0.92 0.95 1.12 1.20 1.30 1.48 1.75 2.05 2.48 2.70 2.82 2.74 2.75 2.77 2.86 3.08 3.08 2.90 2.77 2.55 2.50 2.49 2.44 2.53 2.62 2.34 2.20
0.09 0.08 0.08 0.09 0.09 0.11 0.13 0.12 0.15 0.23 0.33 0.59 0.77 1.25 1.80 1.67 1.48 1.25 1.11 1.14 1.09 1.09 1.18 1.31 1.35 1.58 1.89 2.16 2.23 2.25 2.62 2.75 2.78 2.80 2.81 2.86 2.58 2.46 2.46 2.60 2.83 2.79 2.44 2.08
0.10 0.09 0.09 0.08 0.09 0.12 0.12 0.16 0.27 0.47 0.63 1.04 0.98 1.15 1.66 1.49 1.29 1.26 1.08 0.91 0.87 0.86 0.92 1.12 1.15 1.19 1.36 1.50 1.64 1.81 2.17 2.42 2.49 2.45 2.46 2.51 2.55 2.59 2.45 2.45 2.56 2.52 2.38 2.19
0.20 0.16 0.12 0.08 0.10 0.13 0.15 0.27 0.62 1.09 1.42 1.53 1.03 1.00 1.28 1.05 1.04 1.15 0.90 0.64 0.61 0.70 0.74 0.93 0.94 0.99 1.16 1.20 1.28 1.53 1.81 2.00 2.07 2.12 2.19 2.27 2.51 2.50 2.31 2.14 2.26 2.32 2.19 2.11
0.24 0.27 0.14 0.08 0.10 0.14 0.17 0.21 0.43 0.73 0.95 1.11 1.11 1.46 1.35 0.87 0.82 0.74 0.57 0.46 0.44 0.61 0.69 0.76 0.72 0.75 0.95 1.07 1.12 1.29 1.47 1.61 1.73 1.94 2.13 2.14 2.29 2.14 2.05 2.25 2.14 2.07 1.89 1.96
0.12 0.13 0.10 0.08 0.09 0.12 0.13 0.14 0.18 0.31 0.41 0.76 1.21 1.57 1.32 0.84 0.79 0.64 0.48 0.41 0.46 0.50 0.64 0.67 0.64 0.65 0.72 0.82 0.95 1.21 1.50 1.53 1.56 1.71 1.93 1.97 1.94 1.97 2.11 2.35 2.27 2.08 2.03 1.94
0.07 0.07 0.08 0.08 0.10 0.11 0.11 0.14 0.18 0.28 0.45 0.71 1.09 1.45 1.56 1.26 0.91 0.66 0.57 0.56 0.65 0.64 0.72 0.78 0.69 0.71 0.73 0.76 0.92 1.04 1.22 1.45 1.64 1.65 1.65 1.62 1.86 1.94 2.08 2.19 2.09 2.07 2.07 2.12
0.06 0.05 0.07 0.09 0.11 0.12 0.13 0.15 0.17 0.22 0.31 0.51 0.94 1.17 1.07 1.04 0.82 0.68 0.68 0.81 0.73 0.67 0.70 0.77 0.62 0.63 0.67 0.78 0.87 1.03 1.19 1.45 1.65 1.58 1.57 1.69 1.85 1.94 2.02 2.19 2.14 2.10 2.13 2.25
0.06 0.06 0.07 0.12 0.14 0.14 0.13 0.15 0.17 0.22 0.26 0.27 0.51 0.82 0.67 0.75 0.77 0.85 0.86 0.82 0.79 0.79 0.79 0.83 0.76 0.86 0.90 1.02 1.06 1.12 1.22 1.41 1.53 1.52 1.60 1.71 1.83 1.89 1.97 2.06 2.19 2.27 2.28 2.36
0.07 0.07 0.09 0.25 0.35 0.26 0.18 0.13 0.15 0.18 0.20 0.24 0.53 0.86 0.69 0.74 0.77 0.84 0.86 0.86 0.98 1.05 0.99 0.97 1.01 1.13 1.12 1.15 1.27 1.31 1.37 1.44 1.56 1.71 1.76 1.72 1.74 1.75 1.86 2.02 2.14 2.27 2.35 2.41
0.08 0.08 0.10 0.25 0.37 0.40 0.30 0.20 0.19 0.17 0.18 0.24 0.39 0.65 0.65 0.76 1.04 1.02 1.07 1.07 1.04 1.05 1.05 1.00 1.03 1.10 1.15 1.24 1.42 1.55 1.55 1.50 1.59 1.65 1.71 1.76 1.80 1.89 2.02 2.15 2.24 2.31 2.29 2.31
0.09 0.08 0.08 0.14 0.20 0.23 0.24 0.23 0.21 0.16 0.15 0.22 0.33 0.49 0.67 0.84 1.09 1.01 1.03 1.09 1.15 1.08 1.04 0.99 1.02 1.13 1.30 1.36 1.36 1.41 1.46 1.51 1.67 1.68 1.66 1.77 1.97 2.05 2.10 2.11 2.12 2.17 2.17 2.06
0.16 0.13 0.14 0.17 0.16 0.16 0.18 0.20 0.17 0.13 0.12 0.13 0.27 0.52 0.73 0.83 0.94 0.99 0.89 0.95 1.15 1.10 1.04 1.06 1.15 1.27 1.29 1.23 1.24 1.26 1.23 1.31 1.53 1.66 1.75 1.84 1.91 1.90 2.01 2.05 2.04 2.07 2.12 2.17
0.29 0.25 0.25 0.23 0.18 0.20 0.28 0.24 0.21 0.18 0.17 0.19 0.33 0.54 0.75 0.90 0.83 0.91 0.92 0.93 0.93 0.93 0.95 1.08 1.21 1.23 1.24 1.29 1.29 1.19 1.09 1.19 1.51 1.64 1.70 1.93 2.05 1.97 2.06 2.09 2.12 2.11 2.14 2.29
0.40 0.42 0.35 0.31 0.34 0.42 0.33 0.29 0.28 0.31 0.34 0.32 0.36 0.52 0.75 0.98 0.95 0.90 0.93 0.93 0.87 0.76 0.86 0.99 1.08 1.14 1.18 1.21 1.19 1.16 1.15 1.21 1.50 1.75 1.89 2.20 2.37 2.22 2.21 2.24 2.25 2.31 2.43 2.48
0.42 0.51 0.52 0.48 0.52 0.54 0.47 0.42 0.44 0.57 0.76 0.60 0.60 0.79 0.84 0.84 0.90 1.00 0.96 0.92 0.84 0.86 0.94 0.96 1.06 1.18 1.31 1.46 1.47 1.42 1.48 1.59 1.78 1.97 2.13 2.41 2.65 2.75 2.69 2.50 2.56 2.64 2.65 2.61
0.40 0.51 0.63 0.66 0.75 0.85 0.77 0.61 0.56 0.75 1.24 1.01 0.86 0.92 0.95 0.95 1.20 1.19 0.92 0.81 0.79 0.85 0.98 1.14 1.30 1.33 1.39 1.59 1.61 1.65 1.77 2.00 2.14 2.12 2.16 2.38 2.66 2.77 2.74 2.69 2.88 2.98 2.86 2.75
0.63 0.66 0.70 0.78 0.88 0.89 0.80 0.69 0.77 1.35 1.77 1.28 1.14 1.16 1.22 1.23 1.20 1.09 0.97 0.95 0.85 0.84 0.96 1.02 1.04 1.18 1.33 1.50 1.65 1.86 1.95 2.10 2.19 2.26 2.26 2.39 2.63 2.93 2.89 2.94 3.03 3.08 3.06 3.06
0.88 0.88 0.87 0.92 1.17 1.31 0.86 0.79 1.22 1.63 1.45 1.50 1.51 1.47 1.39 1.22 1.08 0.99 0.97 1.02 0.93 0.91 1.00 1.05 1.00 1.11 1.31 1.55 1.82 1.96 2.02 2.13 2.30 2.36 2.36 2.43 2.70 2.83 2.86 3.01 3.07 3.19 3.31 3.30
1.10 1.15 1.14 1.23 1.47 1.34 1.07 1.15 1.25 1.35 1.48 1.52 1.45 1.46 1.41 1.33 1.21 1.14 1.12 1.11 1.08 1.13 1.13 1.23 1.26 1.26 1.40 1.61 1.83 2.06 2.13 2.16 2.13 2.13 2.17 2.28 2.46 2.60 2.78 2.91 2.85 2.94 3.10 3.06
1.26 1.08 1.32 1.67 1.65 1.47 1.32 1.25 1.26 1.24 1.32 1.29 1.22 1.18 1.16 1.18 1.18 1.17 1.20 1.28 1.31 1.39 1.34 1.37 1.50 1.53 1.56 1.65 1.83 2.01 2.04 2.05 2.04 1.98 1.98 2.12 2.36 2.51 2.62 2.71 2.68 2.74 2.77 2.83
1.62 1.51 1.73 2.17 2.14 1.91 1.73 1.53 1.46 1.34 1.34 1.30 1.20 1.17 1.12 1.04 1.07 1.10 1.10 1.21 1.31 1.37 1.39 1.39 1.54 1.66 1.67 1.71 1.89 2.03 2.08 2.13 2.18 2.13 2.12 2.25 2.34 2.41 2.58 2.67 2.71 2.74 2.71 2.70
1.64 1.88 2.22 2.52 2.29 2.17 2.13 1.75 1.66 1.62 1.47 1.34 1.34 1.33 1.21 1.07 1.06 1.11 1.13 1.20 1.27 1.35 1.48 1.54 1.63 1.69 1.67 1.70 1.85 1.95 2.12 2.32 2.41 2.34 2.30 2.28 2.25 2.31 2.31 2.34 2.32 2.32 2.29 2.30